Home   Weather   Gliwice   Past weeks

Flag for Poland Past Weather in Gliwice, Poland — Yesterday and Last 2 Weeks

Now
43 °F

Sunny.


Feels Like: 35 °F
Forecast: 33 / 53 °F
Wind: 17 mph from Southwest

Location: Katowice Airport

Current Time: Feb 26, 2017 at 4:04:17 pm

Latest Report: Feb 26, 2017 at 3:30 pm


Visibility: 10 mi

Pressure: 29.92 "Hg

Humidity: 42%

Dew Point: 21 °F

Location of GliwiceLocation

Past Weather in Gliwice — Graph

°F

Gliwice Temperature Yesterday

Maximum temperature yesterday: 39 °F (at 3:30 pm)
Minimum temperature yesterday: 25 °F (at 12:00 am)
Average temperature yesterday: 31 °F

High & Low Weather Summary for the Past Weeks

 TemperatureHumidityPressure
High54 °F (Feb 23, 10:00 pm)100% (Feb 14, 11:30 pm)30.63 "Hg (Feb 14, 11:30 pm)
Low14 °F (Feb 12, 7:00 am)32% (Feb 15, 3:30 pm)29.30 "Hg (Feb 23, 10:00 pm)
Average33 °F81%30.12 "Hg
* Reported Feb 11 3:00 pm — Feb 26 3:00 pm, Gliwice, Weather by CustomWeather, © 2017

Note: Actual official high and low records may vary slightly from our data, if they occured in-between our weather recording intervals... More about our weather records

Advertising

Gliwice Weather History for the Previous 24 Hours

Scroll right to see more
 ConditionsComfort  
Time TempWeatherWind HumidityBarometerVisibility
3:00 pm
Sun, Feb 26
43 °FPartly sunny.20 mph42%29.92 "HgN/A
2:30 pm43 °FPartly sunny.20 mph42%29.92 "HgN/A
2:00 pm43 °FPartly sunny.21 mph39%29.95 "HgN/A
1:30 pm43 °FPassing clouds.22 mph39%29.95 "HgN/A
1:00 pm43 °FPassing clouds.20 mph39%29.95 "HgN/A
12:30 pm43 °FScattered clouds.25 mph39%29.95 "HgN/A
12:00 pm45 °FSunny.21 mph39%29.98 "Hg10 mi
11:30 am43 °FSunny.23 mph39%29.98 "Hg10 mi
11:00 am43 °FSunny.22 mph42%29.98 "Hg10 mi
10:30 am41 °FSunny.23 mph45%29.98 "Hg10 mi
10:00 am41 °FSunny.23 mph45%29.98 "Hg10 mi
9:30 am41 °FSunny.24 mph45%29.98 "Hg10 mi
9:00 am39 °FPassing clouds.22 mph48%30.01 "HgN/A
8:30 am39 °FSunny.22 mph52%29.98 "Hg10 mi
8:00 am39 °FSunny.17 mph52%30.01 "Hg10 mi
7:30 am37 °FSunny.20 mph56%29.98 "Hg10 mi
7:00 am37 °FSunny.21 mph56%29.98 "Hg10 mi
6:30 am37 °FClear.20 mph56%30.01 "Hg10 mi
6:00 am37 °FClear.16 mph56%30.01 "Hg10 mi
5:30 am37 °FClear.16 mph56%30.01 "Hg10 mi
5:00 am37 °FClear.15 mph56%30.01 "Hg10 mi
4:30 am37 °FClear.15 mph56%30.01 "Hg10 mi
4:00 am36 °FClear.13 mph60%30.04 "Hg10 mi
3:30 am36 °FClear.13 mph60%30.04 "Hg10 mi
3:00 am36 °FClear.14 mph60%30.04 "Hg10 mi
2:30 am36 °FClear.15 mph56%30.07 "Hg10 mi
2:00 am36 °FClear.14 mph60%30.07 "Hg10 mi
1:30 am36 °FClear.13 mph60%30.07 "Hg10 mi
1:00 am36 °FClear.12 mph60%30.07 "Hg10 mi
12:30 am34 °FClear.10 mph60%30.09 "Hg10 mi
12:00 am34 °FClear.10 mph65%30.09 "Hg10 mi
11:30 pm
Sat, Feb 25
34 °FClear.9 mph65%30.12 "Hg5 mi
11:00 pm32 °FClear.9 mph69%30.12 "Hg4 mi
10:30 pm32 °FIce fog.9 mph69%30.12 "Hg3 mi
10:00 pm32 °FIce fog.8 mph69%30.15 "Hg3 mi
9:30 pm30 °FIce fog.7 mph75%30.15 "Hg3 mi
9:00 pm28 °FIce fog.5 mph74%30.15 "Hg3 mi
8:30 pm28 °FIce fog.5 mph74%30.15 "Hg2 mi
8:00 pm28 °FClear.2 mph80%30.15 "Hg4 mi
7:30 pm30 °FClear.6 mph75%30.15 "Hg4 mi
7:00 pm30 °FClear.7 mph75%30.15 "Hg4 mi
6:30 pm28 °FClear.3 mph74%30.15 "Hg6 mi
6:00 pm30 °FClear.6 mph75%30.15 "Hg10 mi
5:30 pm32 °FClear.7 mph69%30.12 "Hg10 mi
5:00 pm34 °FPassing clouds.7 mph65%30.12 "HgN/A
4:30 pm36 °FScattered clouds.13 mph60%30.15 "HgN/A
4:00 pm37 °FPassing clouds.15 mph56%30.15 "HgN/A
Weather by CustomWeather, © 2017

See weather overviewHow to use our weather pages

LIVE ANNULAR SOLAR ECLIPSE – Watch the eclipse as it happens